Flag for Niger Weather past 2 weeks in Agadez, Niger

Now
72 °F

Clear.


Feels Like: 76 °F
Forecast: 80 / 106 °F
Wind: 2 mph from East

Location: Tamanrasset / Aguenna

Current Time: Jul 26, 2014 at 5:07:07 AM

Latest Report: Jul 26, 2014 at 4:30 AM


Visibility: 10 mi

Pressure: 30.12 "Hg

Humidity: 25%

Dew point: 34 °F

Location of AgadezLocation

Historic Weather in Agadez — Graph

°F

Agadez temperature yesterday

Maximum temperature yesterday: 99 °F (at 1:30 PM)
Minimum temperature yesterday: 75 °F (at 6:00 AM)
Average temperature yesterday: 89 °F

Past Weeks' High & Low Weather Summary

 TemperatureHumidityPressure
High102 °F (Jul 15, 3:30 PM)57% (Jul 15, 6:00 AM)30.21 "Hg (Jul 15, 6:00 AM)
Low72 °F (Jul 15, 6:00 AM)10% (Jul 11, 3:00 PM)30.07 "Hg (Jul 11, 4:00 PM)
Average88 °F20%30.13 "Hg
* Reported Jul 11 4:00 AM — Jul 26 4:00 AM, Agadez, Weather by CustomWeather, © 2014

Note: Actual official high and low records may vary slightly from our data, if they occured in-between our weather recording intervals... More about our weather records

Advertising

Agadez weather history for previous 24 hours

 ConditionsComfort  
Time TempWeatherWind HumidityBarometerVisibility
4:00 AM
Jul 26
73 °FClear.3 mph25%30.12 "Hg10 mi
3:00 AM75 °FClear.5 mph24%30.12 "Hg10 mi
2:30 AM75 °FClear.5 mph25%30.12 "Hg10 mi
2:00 AM77 °FClear.7 mph24%30.15 "Hg10 mi
1:30 AM79 °FClear.7 mph23%30.15 "Hg10 mi
1:00 AM79 °FClear.6 mph23%30.15 "Hg10 mi
12:30 AM81 °FClear.7 mph21%30.15 "Hg10 mi
12:00 AM81 °FClear.6 mph21%30.15 "Hg10 mi
11:00 PM
Jul 25
82 °FClear.7 mph20%30.15 "Hg10 mi
10:30 PM82 °FClear.6 mph19%30.15 "Hg10 mi
10:00 PM84 °FClear.5 mph19%30.15 "Hg10 mi
9:30 PM88 °FClear.9 mph18%30.12 "Hg10 mi
9:00 PM88 °FClear.9 mph18%30.12 "Hg10 mi
8:30 PM88 °FClear.8 mph17%30.12 "Hg10 mi
8:00 PM91 °FSunny.12 mph15%30.09 "Hg10 mi
7:30 PM93 °FSunny.13 mph13%30.09 "Hg10 mi
7:00 PM95 °FPassing clouds.9 mph12%30.09 "HgN/A
6:30 PM95 °FSunny.16 mph13%30.07 "Hg10 mi
6:00 PM97 °FPassing clouds.12 mph13%30.07 "HgN/A
5:30 PM97 °FPassing clouds.9 mph13%30.07 "HgN/A
5:00 PM97 °FPassing clouds.12 mph13%30.07 "HgN/A
4:30 PM97 °FPassing clouds.12 mph14%30.09 "HgN/A
4:00 PM97 °FPassing clouds.10 mph14%30.09 "HgN/A
3:30 PM99 °FPassing clouds.14 mph12%30.09 "HgN/A
3:00 PM97 °FPassing clouds.18 mph13%30.12 "HgN/A
2:30 PM97 °FPassing clouds.20 mph13%30.12 "HgN/A
2:00 PM97 °FPassing clouds.20 mph13%30.12 "HgN/A
1:30 PM99 °FPassing clouds.22 mph13%30.12 "HgN/A
1:00 PM97 °FPassing clouds.21 mph13%30.15 "HgN/A
12:30 PM97 °FSunny.20 mph13%30.15 "Hg10 mi
12:00 PM97 °FPassing clouds.21 mph13%30.15 "HgN/A
11:30 AM95 °FSunny.22 mph14%30.15 "Hg10 mi
11:00 AM95 °FSunny.20 mph14%30.15 "Hg10 mi
10:30 AM93 °FSunny.21 mph15%30.15 "Hg10 mi
10:00 AM93 °FPassing clouds.18 mph16%30.15 "HgN/A
9:30 AM91 °FSunny.16 mph15%30.15 "Hg10 mi
9:00 AM91 °FSunny.8 mph15%30.15 "Hg10 mi
8:30 AM90 °FSunny.9 mph16%30.15 "Hg10 mi
8:00 AM88 °FSunny.8 mph16%30.15 "Hg10 mi
7:30 AM82 °FSunny.8 mph19%30.15 "Hg10 mi
7:00 AM81 °FClear.9 mph18%30.15 "Hg10 mi
6:30 AM75 °FClear.10 mph22%30.12 "Hg10 mi
6:00 AM75 °FClear.10 mph21%30.12 "Hg10 mi
5:30 AM77 °FClear.9 mph21%30.12 "Hg10 mi
5:00 AM77 °FClear.9 mph21%30.12 "Hg10 mi
Weather by CustomWeather, © 2014

See weather overviewHow to use our weather pages